| time (UTC) | temp F | wind direction | speed MPH | gust MPH | rain 1hr in | rain 24hr in | rain mn in | humidity % | barometer mb |
| 20260509001031 | 63 | 45 | 0.0 | 1.0 | 0.00 | 0.00 | 0.00 | 40 | 1007.1 |
| 20260509000531 | 63 | 45 | 0.0 | 5.0 | 0.00 | 0.00 | 0.00 | 41 | 1007.1 |
| 20260509000032 | 63 | 147 | 0.0 | 6.0 | 0.00 | 0.00 | 0.00 | 40 | 1007.2 |
| 20260508235531 | 63 | 147 | 0.0 | 6.0 | 0.00 | 0.00 | 0.00 | 41 | 1007.3 |
| 20260508235032 | 63 | 147 | 1.0 | 8.0 | 0.00 | 0.00 | 0.00 | 40 | 1007.2 |
| 20260508234531 | 63 | 147 | 2.0 | 8.0 | 0.00 | 0.00 | 0.00 | 40 | 1007.1 |
| 20260508234033 | 64 | 147 | 0.0 | 5.0 | 0.00 | 0.00 | 0.00 | 40 | 1007.1 |
| 20260508233530 | 64 | 147 | 2.0 | 8.0 | 0.00 | 0.00 | 0.00 | 39 | 1007.1 |
| 20260508233031 | 64 | 147 | 1.0 | 8.0 | 0.00 | 0.00 | 0.00 | 40 | 1007.1 |
| 20260508232530 | 64 | 161 | 0.0 | 9.0 | 0.00 | 0.00 | 0.00 | 40 | 1007.0 |
| 20260508232030 | 64 | 168 | 0.0 | 5.0 | 0.00 | 0.00 | 0.00 | 39 | 1007.1 |
| 20260508231529 | 64 | 168 | 0.0 | 5.0 | 0.00 | 0.00 | 0.00 | 38 | 1007.2 |
| 20260508231029 | 64 | 168 | 1.0 | 6.0 | 0.00 | 0.00 | 0.00 | 38 | 1007.1 |
| 20260508230528 | 64 | 168 | 0.0 | 8.0 | 0.00 | 0.00 | 0.00 | 39 | 1007.1 |
| 20260508230028 | 64 | 156 | 1.0 | 8.0 | 0.00 | 0.00 | 0.00 | 40 | 1007.1 |
| 20260508225528 | 65 | 52 | 0.0 | 4.0 | 0.00 | 0.00 | 0.00 | 39 | 1007.2 |
| 20260508225028 | 65 | 147 | 0.0 | 6.0 | 0.00 | 0.00 | 0.00 | 38 | 1007.2 |
| 20260508224535 | 65 | 160 | 0.0 | 6.0 | 0.00 | 0.00 | 0.00 | 37 | 1007.1 |
| 20260508224031 | 65 | 164 | 0.0 | 6.0 | 0.00 | 0.00 | 0.00 | 37 | 1007.2 |
| 20260508223529 | 65 | 164 | 0.0 | 6.0 | 0.00 | 0.00 | 0.00 | 38 | 1007.2 |
| 20260508223041 | 66 | 250 | 0.0 | 5.0 | 0.00 | 0.00 | 0.00 | 40 | 1007.2 |
| 20260508222527 | 66 | 185 | 0.0 | 4.0 | 0.00 | 0.00 | 0.00 | 39 | 1007.2 |
| 20260508222026 | 66 | 160 | 0.0 | 6.0 | 0.00 | 0.00 | 0.00 | 38 | 1007.1 |
| 20260508221525 | 66 | 129 | 0.0 | 6.0 | 0.00 | 0.00 | 0.00 | 38 | 1007.3 |
| 20260508221025 | 66 | 52 | 0.0 | 15.0 | 0.00 | 0.00 | 0.00 | 39 | 1007.2 |
| 20260508220525 | 66 | 144 | 5.0 | 15.0 | 0.00 | 0.00 | 0.00 | 39 | 1006.9 |
| 20260508220028 | 66 | 143 | 2.0 | 12.0 | 0.00 | 0.00 | 0.00 | 39 | 1007.1 |
| 20260508215523 | 67 | 146 | 2.0 | 11.0 | 0.00 | 0.00 | 0.00 | 39 | 1007.1 |
| 20260508215023 | 67 | 149 | 0.0 | 5.0 | 0.00 | 0.00 | 0.00 | 38 | 1007.3 |
| 20260508214542 | 67 | 343 | 0.0 | 4.0 | 0.00 | 0.00 | 0.00 | 39 | 1007.3 |
| 20260508214025 | 67 | 54 | 0.0 | 4.0 | 0.00 | 0.00 | 0.00 | 38 | 1007.3 |
| 20260508213522 | 66 | 248 | 0.0 | 3.0 | 0.00 | 0.00 | 0.00 | 37 | 1007.5 |
| 20260508213021 | 66 | 242 | 0.0 | 4.0 | 0.00 | 0.00 | 0.00 | 39 | 1007.6 |
| 20260508212521 | 66 | 54 | 0.0 | 9.0 | 0.00 | 0.00 | 0.00 | 40 | 1007.5 |
| 20260508212020 | 66 | 133 | 4.0 | 9.0 | 0.00 | 0.00 | 0.00 | 41 | 1007.5 |
| 20260508211520 | 66 | 133 | 0.0 | 12.0 | 0.00 | 0.00 | 0.00 | 40 | 1007.7 |
| 20260508211018 | 66 | 135 | 3.0 | 12.0 | 0.00 | 0.00 | 0.00 | 40 | 1007.7 |
| 20260508210517 | 67 | 129 | 2.0 | 12.0 | 0.00 | 0.00 | 0.00 | 40 | 1007.7 |
| 20260508210017 | 67 | 169 | 0.0 | 7.0 | 0.00 | 0.00 | 0.00 | 38 | 1007.8 |
| 20260508205516 | 66 | 250 | 0.0 | 3.0 | 0.00 | 0.00 | 0.00 | 39 | 1007.9 |
| 20260508205017 | 66 | 330 | 0.0 | 10.0 | 0.00 | 0.00 | 0.00 | 42 | 1008.1 |
| 20260508204616 | 66 | 148 | 3.0 | 16.0 | 0.00 | 0.00 | 0.00 | 39 | 1008.0 |
| 20260508204014 | 67 | 150 | 8.0 | 16.0 | 0.00 | 0.00 | 0.00 | 38 | 1008.1 |
| 20260508203514 | 68 | 139 | 0.0 | 9.0 | 0.00 | 0.00 | 0.00 | 39 | 1008.1 |
| 20260508203114 | 68 | 291 | 0.0 | 4.0 | 0.00 | 0.00 | 0.00 | 39 | 1008.1 |
| 20260508202514 | 68 | 295 | 0.0 | 4.0 | 0.00 | 0.00 | 0.00 | 39 | 1008.3 |
| 20260508202012 | 68 | 267 | 0.0 | 2.0 | 0.00 | 0.00 | 0.00 | 39 | 1008.3 |
| 20260508201512 | 68 | 272 | 0.0 | 2.0 | 0.00 | 0.00 | 0.00 | 40 | 1008.3 |
| 20260508201010 | 67 | 270 | 0.0 | 4.0 | 0.00 | 0.00 | 0.00 | 39 | 1008.3 |
| 20260508200509 | 67 | 270 | 0.0 | 4.0 | 0.00 | 0.00 | 0.00 | 41 | 1008.3 |
| 20260508200009 | 66 | 270 | 0.0 | 6.0 | 0.00 | 0.00 | 0.00 | 43 | 1008.4 |
| 20260508195508 | 66 | 211 | 0.0 | 9.0 | 0.00 | 0.00 | 0.00 | 41 | 1008.4 |
| 20260508195010 | 66 | 156 | 1.0 | 9.0 | 0.00 | 0.00 | 0.00 | 40 | 1008.4 |
| 20260508194508 | 67 | 192 | 0.0 | 4.0 | 0.00 | 0.00 | 0.00 | 41 | 1008.6 |
| 20260508194007 | 67 | 281 | 1.0 | 4.0 | 0.00 | 0.00 | 0.00 | 40 | 1008.7 |
| 20260508193506 | 66 | 248 | 0.0 | 4.0 | 0.00 | 0.00 | 0.00 | 39 | 1008.8 |
| 20260508193006 | 66 | 223 | 0.0 | 4.0 | 0.00 | 0.00 | 0.00 | 39 | 1008.8 |
| 20260508192510 | 66 | 160 | 0.0 | 10.0 | 0.00 | 0.00 | 0.00 | 41 | 1008.9 |
| 20260508192009 | 66 | 152 | 1.0 | 10.0 | 0.00 | 0.00 | 0.00 | 40 | 1008.8 |
| 20260508191505 | 67 | 240 | 0.0 | 1.0 | 0.00 | 0.00 | 0.00 | 38 | 1008.9 |
| 20260508191004 | 66 | 274 | 0.0 | 2.0 | 0.00 | 0.00 | 0.00 | 42 | 1008.9 |
| 20260508190504 | 66 | 274 | 0.0 | 5.0 | 0.00 | 0.00 | 0.00 | 38 | 1009.0 |
| 20260508190009 | 66 | 272 | 0.0 | 5.0 | 0.00 | 0.00 | 0.00 | 41 | 1009.1 |
| 20260508185503 | 66 | 281 | 1.0 | 10.0 | 0.00 | 0.00 | 0.00 | 42 | 1009.0 |
| 20260508185002 | 66 | 148 | 0.0 | 10.0 | 0.00 | 0.00 | 0.00 | 39 | 1009.1 |
| 20260508184505 | 66 | 202 | 0.0 | 4.0 | 0.00 | 0.00 | 0.00 | 39 | 1009.1 |
| 20260508184001 | 66 | 148 | 0.0 | 3.0 | 0.00 | 0.00 | 0.00 | 42 | 1009.3 |
| 20260508183600 | 66 | 124 | 0.0 | 4.0 | 0.00 | 0.00 | 0.00 | 42 | 1009.3 |
| 20260508183114 | 65 | 45 | 0.0 | 4.0 | 0.00 | 0.00 | 0.00 | 43 | 1009.3 |
| 20260508182558 | 65 | 133 | 0.0 | 2.0 | 0.00 | 0.00 | 0.00 | 41 | 1009.3 |
| 20260508182055 | 65 | 34 | 0.0 | 6.0 | 0.00 | 0.00 | 0.00 | 44 | 1009.3 |
| 20260508181555 | 64 | 164 | 1.0 | 6.0 | 0.00 | 0.00 | 0.00 | 44 | 1009.4 |
| 20260508181056 | 64 | 166 | 0.0 | 6.0 | 0.00 | 0.00 | 0.00 | 44 | 1009.4 |
| 20260508180556 | 64 | 259 | 1.0 | 5.0 | 0.00 | 0.00 | 0.00 | 44 | 1009.4 |
| 20260508175552 | 63 | 156 | 0.0 | 9.0 | 0.00 | 0.00 | 0.00 | 43 | 1009.5 |
| 20260508175052 | 64 | 163 | 0.0 | 7.0 | 0.00 | 0.00 | 0.00 | 42 | 1009.6 |
| 20260508174605 | 64 | 162 | 0.0 | 7.0 | 0.00 | 0.00 | 0.00 | 43 | 1009.7 |
| 20260508174050 | 64 | 169 | 0.0 | 7.0 | 0.00 | 0.00 | 0.00 | 41 | 1009.7 |
| 20260508173549 | 64 | 257 | 1.0 | 7.0 | 0.00 | 0.00 | 0.00 | 41 | 1009.7 |
| 20260508173049 | 64 | 241 | 0.0 | 6.0 | 0.00 | 0.00 | 0.00 | 43 | 1009.7 |
| 20260508172547 | 64 | 247 | 0.0 | 4.0 | 0.00 | 0.00 | 0.00 | 42 | 1009.7 |
| 20260508172051 | 64 | 246 | 0.0 | 3.0 | 0.00 | 0.00 | 0.00 | 43 | 1009.7 |
| 20260508171546 | 63 | 250 | 0.0 | 6.0 | 0.00 | 0.00 | 0.00 | 44 | 1009.7 |
| 20260508171046 | 63 | 245 | 0.0 | 8.0 | 0.00 | 0.00 | 0.00 | 42 | 1009.8 |
| 20260508170544 | 63 | 245 | 1.0 | 8.0 | 0.00 | 0.00 | 0.00 | 43 | 1009.9 |
| 20260508170045 | 62 | 243 | 1.0 | 8.0 | 0.00 | 0.00 | 0.00 | 45 | 1010.1 |
| 20260508165541 | 62 | 233 | 0.0 | 4.0 | 0.00 | 0.00 | 0.00 | 44 | 1010.1 |
| 20260508165038 | 61 | 233 | 0.0 | 8.0 | 0.00 | 0.00 | 0.00 | 45 | 1010.1 |
| 20260508164545 | 61 | 232 | 0.0 | 3.0 | 0.00 | 0.00 | 0.00 | 46 | 1010.2 |
| 20260508164037 | 61 | 232 | 0.0 | 4.0 | 0.00 | 0.00 | 0.00 | 44 | 1010.3 |
| 20260508163539 | 60 | 232 | 0.0 | 4.0 | 0.00 | 0.00 | 0.00 | 44 | 1010.3 |
| 20260508163036 | 60 | 230 | 0.0 | 0.0 | 0.00 | 0.00 | 0.00 | 48 | 1010.3 |
| 20260508162533 | 59 | 230 | 0.0 | 0.0 | 0.00 | 0.00 | 0.00 | 46 | 1010.4 |
| 20260508162033 | 59 | 230 | 0.0 | 1.0 | 0.00 | 0.00 | 0.00 | 47 | 1010.4 |
| 20260508161531 | 59 | 230 | 0.0 | 4.0 | 0.00 | 0.00 | 0.00 | 50 | 1010.5 |
| 20260508161029 | 58 | 230 | 1.0 | 7.0 | 0.00 | 0.00 | 0.00 | 51 | 1010.5 |
| 20260508160528 | 59 | 233 | 1.0 | 7.0 | 0.00 | 0.00 | 0.00 | 51 | 1010.5 |
| 20260508160031 | 58 | 239 | 0.0 | 0.0 | 0.00 | 0.00 | 0.00 | 51 | 1010.6 |
| 20260508155527 | 58 | 239 | 0.0 | 0.0 | 0.00 | 0.00 | 0.00 | 54 | 1010.5 |
| 20260508155027 | 58 | 239 | 0.0 | 0.0 | 0.00 | 0.00 | 0.00 | 56 | 1010.6 |
| 20260508154525 | 57 | 239 | 0.0 | 4.0 | 0.00 | 0.00 | 0.00 | 56 | 1010.6 |
| 20260508154023 | 57 | 239 | 0.0 | 4.0 | 0.00 | 0.00 | 0.00 | 59 | 1010.6 |
| 20260508153522 | 56 | 239 | 0.0 | 4.0 | 0.00 | 0.00 | 0.00 | 58 | 1010.7 |
| 20260508153030 | 55 | 239 | 0.0 | 0.0 | 0.00 | 0.00 | 0.00 | 64 | 1010.7 |
| 20260508152522 | 55 | 239 | 0.0 | 8.0 | 0.00 | 0.00 | 0.00 | 63 | 1010.8 |
| 20260508152018 | 54 | 239 | 1.0 | 8.0 | 0.00 | 0.00 | 0.00 | 64 | 1010.8 |
| 20260508151518 | 54 | 239 | 0.0 | 0.0 | 0.00 | 0.00 | 0.00 | 65 | 1010.9 |
| 20260508151015 | 53 | 239 | 0.0 | 0.0 | 0.00 | 0.00 | 0.00 | 64 | 1010.9 |
| 20260508150514 | 53 | 239 | 0.0 | 0.0 | 0.00 | 0.00 | 0.00 | 67 | 1011.0 |
| 20260508150014 | 53 | 239 | 0.0 | 0.0 | 0.00 | 0.00 | 0.00 | 67 | 1011.1 |
| 20260508145512 | 52 | 239 | 0.0 | 3.0 | 0.00 | 0.01 | 0.00 | 69 | 1011.1 |
| 20260508145009 | 52 | 239 | 0.0 | 3.0 | 0.00 | 0.01 | 0.00 | 70 | 1011.1 |
| 20260508144509 | 52 | 239 | 0.0 | 0.0 | 0.00 | 0.01 | 0.00 | 70 | 1011.2 |
| 20260508144109 | 51 | 239 | 0.0 | 0.0 | 0.00 | 0.01 | 0.00 | 71 | 1011.2 |
| 20260508143506 | 51 | 239 | 0.0 | 0.0 | 0.00 | 0.01 | 0.00 | 72 | 1011.4 |
| 20260508143006 | 50 | 239 | 0.0 | 2.0 | 0.00 | 0.01 | 0.00 | 72 | 1011.4 |
| 20260508142503 | 50 | 239 | 0.0 | 4.0 | 0.00 | 0.01 | 0.00 | 74 | 1011.3 |
| 20260508142001 | 49 | 277 | 0.0 | 6.0 | 0.00 | 0.01 | 0.00 | 76 | 1011.4 |
| 20260508141608 | 49 | 277 | 0.0 | 6.0 | 0.00 | 0.01 | 0.00 | 75 | 1011.5 |
| 20260508141058 | 49 | 277 | 0.0 | 0.0 | 0.00 | 0.01 | 0.00 | 76 | 1011.4 |
| 20260508140557 | 48 | 277 | 0.0 | 0.0 | 0.00 | 0.01 | 0.00 | 78 | 1011.5 |
| 20260508140056 | 48 | 277 | 0.0 | 0.0 | 0.00 | 0.01 | 0.00 | 79 | 1011.6 |
| 20260508135554 | 47 | 277 | 0.0 | 5.0 | 0.00 | 0.02 | 0.00 | 83 | 1011.7 |
| 20260508135053 | 46 | 277 | 0.0 | 5.0 | 0.00 | 0.02 | 0.00 | 86 | 1011.8 |
| 20260508134553 | 46 | 277 | 0.0 | 3.0 | 0.00 | 0.02 | 0.00 | 89 | 1011.9 |
| 20260508134051 | 45 | 277 | 0.0 | 5.0 | 0.00 | 0.02 | 0.00 | 90 | 1011.9 |
| 20260508133550 | 44 | 277 | 0.0 | 9.0 | 0.00 | 0.02 | 0.00 | 91 | 1012.0 |
| 20260508133052 | 43 | 277 | 2.0 | 9.0 | 0.00 | 0.02 | 0.00 | 92 | 1012.0 |
| 20260508132548 | 42 | 293 | 1.0 | 5.0 | 0.00 | 0.02 | 0.00 | 92 | 1012.0 |
| 20260508132048 | 41 | 296 | 0.0 | 0.0 | 0.00 | 0.02 | 0.00 | 91 | 1012.0 |
| 20260508131558 | 41 | 296 | 0.0 | 0.0 | 0.00 | 0.02 | 0.00 | 92 | 1011.9 |
| 20260508131047 | 39 | 296 | 0.0 | 0.0 | 0.00 | 0.02 | 0.00 | 91 | 1011.7 |
| 20260508130549 | 38 | 297 | 0.0 | 0.0 | 0.00 | 0.02 | 0.00 | 91 | 1011.8 |
| 20260508130045 | 38 | 296 | 0.0 | 0.0 | 0.00 | 0.02 | 0.00 | 90 | 1011.9 |
| 20260508125543 | 37 | 297 | 0.0 | 0.0 | 0.00 | 0.02 | 0.00 | 90 | 1011.8 |
| 20260508125043 | 37 | 297 | 0.0 | 0.0 | 0.00 | 0.02 | 0.00 | 89 | 1011.6 |
| 20260508124544 | 37 | 297 | 0.0 | 0.0 | 0.00 | 0.02 | 0.00 | 89 | 1011.6 |
| 20260508124042 | 36 | 297 | 0.0 | 0.0 | 0.00 | 0.02 | 0.00 | 89 | 1011.4 |
| 20260508123542 | 36 | 297 | 0.0 | 0.0 | 0.00 | 0.02 | 0.00 | 88 | 1011.4 |
| 20260508123042 | 36 | 297 | 0.0 | 0.0 | 0.00 | 0.02 | 0.00 | 88 | 1011.1 |
| 20260508122541 | 36 | 297 | 0.0 | 0.0 | 0.00 | 0.02 | 0.00 | 87 | 1010.7 |
| 20260508122043 | 36 | 297 | 0.0 | 0.0 | 0.00 | 0.02 | 0.00 | 87 | 1010.6 |
| 20260508121540 | 37 | 297 | 0.0 | 0.0 | 0.00 | 0.02 | 0.00 | 87 | 1010.6 |
| 20260508121038 | 37 | 297 | 0.0 | 0.0 | 0.00 | 0.02 | 0.00 | 87 | 1010.6 |
| 20260508120537 | 37 | 297 | 0.0 | 0.0 | 0.00 | 0.02 | 0.00 | 87 | 1010.4 |
| 20260508120052 | 37 | 297 | 0.0 | 0.0 | 0.00 | 0.02 | 0.00 | 87 | 1010.3 |
| 20260508115537 | 37 | 297 | 0.0 | 0.0 | 0.00 | 0.02 | 0.00 | 87 | 1010.2 |
| 20260508115037 | 38 | 297 | 0.0 | 0.0 | 0.00 | 0.02 | 0.00 | 88 | 1010.0 |
| 20260508114551 | 38 | 297 | 0.0 | 0.0 | 0.00 | 0.02 | 0.00 | 89 | 1010.0 |
| 20260508114037 | 38 | 297 | 0.0 | 0.0 | 0.00 | 0.02 | 0.00 | 88 | 1009.9 |
| 20260508113537 | 38 | 297 | 0.0 | 0.0 | 0.00 | 0.02 | 0.00 | 88 | 1009.9 |
| 20260508113038 | 38 | 297 | 0.0 | 0.0 | 0.00 | 0.02 | 0.00 | 88 | 1009.9 |
| 20260508112536 | 38 | 297 | 0.0 | 0.0 | 0.00 | 0.02 | 0.00 | 88 | 1009.8 |
| 20260508112037 | 38 | 297 | 0.0 | 0.0 | 0.00 | 0.02 | 0.00 | 89 | 1010.0 |
| 20260508111538 | 38 | 297 | 0.0 | 0.0 | 0.00 | 0.02 | 0.00 | 89 | 1009.9 |
| 20260508111036 | 38 | 297 | 0.0 | 0.0 | 0.00 | 0.02 | 0.00 | 89 | 1009.9 |
| 20260508110536 | 38 | 297 | 0.0 | 0.0 | 0.00 | 0.02 | 0.00 | 89 | 1010.1 |
| 20260508110036 | 38 | 297 | 0.0 | 4.0 | 0.00 | 0.02 | 0.00 | 89 | 1010.0 |
| 20260508105535 | 37 | 297 | 0.0 | 4.0 | 0.00 | 0.02 | 0.00 | 88 | 1010.0 |
| 20260508105034 | 37 | 297 | 0.0 | 3.0 | 0.00 | 0.02 | 0.00 | 87 | 1009.7 |
| 20260508104538 | 37 | 56 | 0.0 | 0.0 | 0.00 | 0.02 | 0.00 | 85 | 1009.3 |
| 20260508104033 | 37 | 56 | 0.0 | 0.0 | 0.00 | 0.02 | 0.00 | 85 | 1009.0 |
| 20260508103532 | 37 | 56 | 0.0 | 0.0 | 0.00 | 0.02 | 0.00 | 83 | 1008.9 |
| 20260508103044 | 37 | 56 | 0.0 | 0.0 | 0.00 | 0.02 | 0.00 | 83 | 1009.1 |
| 20260508102533 | 38 | 56 | 0.0 | 0.0 | 0.00 | 0.02 | 0.00 | 83 | 1009.0 |
| 20260508102031 | 38 | 56 | 0.0 | 0.0 | 0.00 | 0.02 | 0.00 | 82 | 1009.0 |
| 20260508101530 | 38 | 56 | 0.0 | 0.0 | 0.00 | 0.02 | 0.00 | 82 | 1009.1 |
| 20260508101031 | 39 | 56 | 0.0 | 0.0 | 0.00 | 0.02 | 0.00 | 83 | 1009.1 |
| 20260508100526 | 39 | 56 | 0.0 | 0.0 | 0.00 | 0.02 | 0.00 | 85 | 1009.2 |
| 20260508100026 | 39 | 56 | 0.0 | 0.0 | 0.00 | 0.02 | 0.00 | 85 | 1009.2 |
| 20260508095526 | 39 | 56 | 0.0 | 0.0 | 0.00 | 0.02 | 0.00 | 85 | 1009.1 |
| 20260508095025 | 39 | 56 | 0.0 | 0.0 | 0.00 | 0.02 | 0.00 | 85 | 1008.9 |
| 20260508094525 | 39 | 56 | 0.0 | 0.0 | 0.00 | 0.02 | 0.00 | 85 | 1009.1 |
| 20260508094023 | 39 | 56 | 0.0 | 0.0 | 0.00 | 0.02 | 0.00 | 85 | 1009.1 |
| 20260508093522 | 40 | 56 | 0.0 | 0.0 | 0.00 | 0.02 | 0.00 | 83 | 1009.3 |
| 20260508093033 | 40 | 56 | 0.0 | 0.0 | 0.00 | 0.02 | 0.00 | 83 | 1009.5 |
| 20260508092619 | 40 | 56 | 0.0 | 0.0 | 0.00 | 0.02 | 0.00 | 82 | 1009.5 |
| 20260508092019 | 40 | 56 | 0.0 | 0.0 | 0.00 | 0.02 | 0.00 | 83 | 1009.5 |
| 20260508091528 | 41 | 56 | 0.0 | 0.0 | 0.00 | 0.02 | 0.00 | 83 | 1009.6 |
| 20260508091017 | 41 | 56 | 0.0 | 0.0 | 0.00 | 0.02 | 0.00 | 83 | 1009.6 |
| 20260508090516 | 41 | 56 | 0.0 | 0.0 | 0.00 | 0.02 | 0.00 | 82 | 1009.6 |
| 20260508090016 | 41 | 56 | 0.0 | 0.0 | 0.00 | 0.02 | 0.00 | 81 | 1009.7 |
| 20260508085517 | 41 | 56 | 0.0 | 0.0 | 0.00 | 0.02 | 0.00 | 81 | 1009.7 |
| 20260508085113 | 41 | 56 | 0.0 | 0.0 | 0.00 | 0.02 | 0.00 | 82 | 1009.7 |
| 20260508084512 | 42 | 56 | 0.0 | 0.0 | 0.00 | 0.02 | 0.00 | 81 | 1009.8 |
| 20260508084011 | 42 | 56 | 0.0 | 0.0 | 0.00 | 0.02 | 0.00 | 80 | 1009.8 |
| 20260508083510 | 42 | 56 | 0.0 | 0.0 | 0.00 | 0.02 | 0.00 | 79 | 1009.9 |
| 20260508083009 | 42 | 56 | 0.0 | 0.0 | 0.00 | 0.02 | 0.00 | 79 | 1010.0 |
| 20260508082512 | 43 | 56 | 0.0 | 0.0 | 0.00 | 0.02 | 0.00 | 78 | 1010.0 |
| 20260508082011 | 43 | 56 | 0.0 | 0.0 | 0.00 | 0.02 | 0.00 | 78 | 1010.0 |
| 20260508081510 | 43 | 56 | 0.0 | 0.0 | 0.00 | 0.02 | 0.00 | 78 | 1010.0 |
| 20260508081004 | 44 | 56 | 0.0 | 0.0 | 0.00 | 0.02 | 0.00 | 76 | 1010.1 |
| 20260508080504 | 44 | 56 | 0.0 | 0.0 | 0.00 | 0.02 | 0.00 | 75 | 1010.3 |
| 20260508080003 | 45 | 56 | 0.0 | 0.0 | 0.00 | 0.02 | 0.00 | 75 | 1010.1 |
| 20260508075500 | 45 | 56 | 0.0 | 0.0 | 0.00 | 0.02 | 0.00 | 76 | 1010.1 |
| 20260508075100 | 45 | 56 | 0.0 | 0.0 | 0.00 | 0.02 | 0.00 | 75 | 1010.1 |
| 20260508074600 | 45 | 56 | 0.0 | 0.0 | 0.00 | 0.02 | 0.00 | 75 | 1010.3 |
| 20260508074059 | 46 | 56 | 0.0 | 0.0 | 0.00 | 0.02 | 0.00 | 75 | 1010.4 |
| 20260508073558 | 46 | 55 | 0.0 | 0.0 | 0.00 | 0.02 | 0.00 | 74 | 1010.4 |
| 20260508073057 | 46 | 55 | 0.0 | 0.0 | 0.00 | 0.02 | 0.00 | 74 | 1010.7 |
| 20260508072555 | 46 | 55 | 0.0 | 0.0 | 0.00 | 0.02 | 0.00 | 73 | 1010.5 |
| 20260508072054 | 47 | 55 | 0.0 | 0.0 | 0.00 | 0.02 | 0.00 | 72 | 1010.5 |
| 20260508071555 | 47 | 55 | 0.0 | 0.0 | 0.00 | 0.02 | 0.00 | 72 | 1010.4 |
| 20260508071053 | 47 | 55 | 0.0 | 0.0 | 0.00 | 0.02 | 0.00 | 72 | 1010.4 |
| 20260508070552 | 47 | 55 | 0.0 | 2.0 | 0.00 | 0.02 | 0.00 | 73 | 1010.5 |
| 20260508070053 | 47 | 55 | 0.0 | 5.0 | 0.00 | 0.02 | 0.00 | 72 | 1010.4 |
| 20260508065554 | 47 | 55 | 1.0 | 5.0 | 0.00 | 0.02 | 0.00 | 72 | 1010.4 |
| 20260508065050 | 48 | 55 | 0.0 | 0.0 | 0.00 | 0.02 | 0.00 | 71 | 1010.6 |
| 20260508064549 | 48 | 55 | 0.0 | 0.0 | 0.00 | 0.02 | 0.00 | 70 | 1010.7 |
| 20260508064048 | 48 | 55 | 0.0 | 0.0 | 0.00 | 0.02 | 0.00 | 70 | 1010.9 |
| 20260508063547 | 48 | 55 | 0.0 | 1.0 | 0.00 | 0.02 | 0.00 | 70 | 1010.9 |
| 20260508063059 | 49 | 55 | 0.0 | 3.0 | 0.00 | 0.02 | 0.00 | 69 | 1011.4 |
| 20260508062549 | 49 | 55 | 0.0 | 3.0 | 0.00 | 0.02 | 0.00 | 69 | 1011.8 |
| 20260508062044 | 49 | 129 | 0.0 | 0.0 | 0.00 | 0.02 | 0.00 | 68 | 1011.0 |
| 20260508061546 | 49 | 129 | 0.0 | 0.0 | 0.00 | 0.02 | 0.00 | 67 | 1010.5 |
| 20260508061043 | 49 | 129 | 0.0 | 0.0 | 0.00 | 0.02 | 0.00 | 66 | 1010.4 |
| 20260508060541 | 49 | 129 | 0.0 | 0.0 | 0.00 | 0.02 | 0.00 | 67 | 1010.5 |
| 20260508060041 | 50 | 129 | 0.0 | 0.0 | 0.00 | 0.02 | 0.00 | 67 | 1010.4 |
| 20260508055540 | 50 | 129 | 0.0 | 0.0 | 0.00 | 0.02 | 0.02 | 66 | 1010.4 |
| 20260508055040 | 50 | 129 | 0.0 | 0.0 | 0.00 | 0.02 | 0.02 | 66 | 1010.4 |
| 20260508054540 | 50 | 129 | 0.0 | 0.0 | 0.00 | 0.02 | 0.02 | 66 | 1010.4 |
| 20260508054040 | 50 | 129 | 0.0 | 0.0 | 0.00 | 0.02 | 0.02 | 66 | 1010.4 |
| 20260508053540 | 50 | 129 | 0.0 | 0.0 | 0.00 | 0.02 | 0.02 | 65 | 1010.3 |
| 20260508053042 | 50 | 129 | 0.0 | 0.0 | 0.00 | 0.02 | 0.02 | 65 | 1010.5 |
| 20260508052539 | 51 | 129 | 0.0 | 11.0 | 0.00 | 0.02 | 0.02 | 64 | 1010.5 |
| 20260508052040 | 51 | 129 | 1.0 | 11.0 | 0.00 | 0.02 | 0.02 | 64 | 1010.6 |
| 20260508051542 | 51 | 129 | 2.0 | 6.0 | 0.00 | 0.02 | 0.02 | 62 | 1010.9 |
| 20260508051042 | 52 | 51 | 0.0 | 1.0 | 0.00 | 0.02 | 0.02 | 61 | 1011.1 |
| 20260508050538 | 52 | 55 | 0.0 | 1.0 | 0.00 | 0.02 | 0.02 | 60 | 1011.1 |
| 20260508050041 | 52 | 55 | 0.0 | 0.0 | 0.00 | 0.02 | 0.02 | 58 | 1010.8 |
| 20260508045538 | 52 | 55 | 0.0 | 0.0 | 0.00 | 0.02 | 0.02 | 56 | 1010.7 |
| 20260508045038 | 52 | 55 | 0.0 | 0.0 | 0.00 | 0.02 | 0.02 | 56 | 1010.5 |
| 20260508044538 | 53 | 55 | 0.0 | 0.0 | 0.00 | 0.02 | 0.02 | 55 | 1010.4 |
| 20260508044040 | 53 | 55 | 0.0 | 0.0 | 0.00 | 0.02 | 0.02 | 54 | 1010.3 |
| 20260508043537 | 53 | 55 | 0.0 | 0.0 | 0.00 | 0.02 | 0.02 | 53 | 1010.3 |
| 20260508043053 | 53 | 54 | 0.0 | 1.0 | 0.00 | 0.02 | 0.02 | 52 | 1010.4 |
| 20260508042537 | 54 | 54 | 0.0 | 1.0 | 0.00 | 0.02 | 0.02 | 52 | 1010.5 |
| 20260508042036 | 54 | 54 | 0.0 | 0.0 | 0.00 | 0.02 | 0.02 | 51 | 1010.5 |
| 20260508041546 | 54 | 54 | 0.0 | 0.0 | 0.00 | 0.02 | 0.02 | 50 | 1010.5 |
| 20260508041039 | 54 | 54 | 0.0 | 0.0 | 0.00 | 0.02 | 0.02 | 49 | 1010.6 |
| 20260508040537 | 54 | 54 | 0.0 | 0.0 | 0.00 | 0.02 | 0.02 | 48 | 1010.7 |
| 20260508040039 | 54 | 54 | 0.0 | 0.0 | 0.00 | 0.02 | 0.02 | 49 | 1010.6 |
| 20260508035537 | 55 | 54 | 0.0 | 0.0 | 0.00 | 0.02 | 0.02 | 47 | 1010.7 |
| 20260508035037 | 55 | 54 | 0.0 | 0.0 | 0.00 | 0.02 | 0.02 | 49 | 1010.7 |
| 20260508034536 | 55 | 54 | 0.0 | 0.0 | 0.00 | 0.02 | 0.02 | 50 | 1010.7 |
| 20260508034037 | 55 | 54 | 0.0 | 0.0 | 0.00 | 0.02 | 0.02 | 47 | 1010.8 |
| 20260508033536 | 55 | 54 | 0.0 | 0.0 | 0.00 | 0.02 | 0.02 | 46 | 1010.7 |
| 20260508033035 | 55 | 54 | 0.0 | 3.0 | 0.00 | 0.02 | 0.02 | 47 | 1010.8 |
| 20260508032536 | 56 | 54 | 0.0 | 4.0 | 0.00 | 0.02 | 0.02 | 46 | 1010.8 |
| 20260508032037 | 56 | 54 | 0.0 | 4.0 | 0.00 | 0.02 | 0.02 | 46 | 1010.8 |
| 20260508031535 | 56 | 39 | 0.0 | 0.0 | 0.00 | 0.02 | 0.02 | 46 | 1011.0 |
| 20260508031034 | 56 | 39 | 0.0 | 0.0 | 0.00 | 0.02 | 0.02 | 46 | 1011.3 |
| 20260508030534 | 56 | 39 | 0.0 | 0.0 | 0.00 | 0.02 | 0.02 | 45 | 1011.3 |
| 20260508030134 | 56 | 39 | 0.0 | 0.0 | 0.00 | 0.02 | 0.02 | 45 | 1011.2 |
| 20260508025534 | 56 | 39 | 0.0 | 0.0 | 0.00 | 0.02 | 0.02 | 44 | 1010.9 |
| 20260508025034 | 57 | 39 | 0.0 | 1.0 | 0.00 | 0.02 | 0.02 | 44 | 1010.8 |
| 20260508024534 | 57 | 39 | 0.0 | 1.0 | 0.00 | 0.02 | 0.02 | 43 | 1010.6 |
| 20260508024034 | 57 | 39 | 0.0 | 2.0 | 0.00 | 0.02 | 0.02 | 43 | 1010.6 |
| 20260508023534 | 57 | 21 | 0.0 | 2.0 | 0.00 | 0.02 | 0.02 | 42 | 1010.5 |
| 20260508023035 | 58 | 51 | 0.0 | 5.0 | 0.00 | 0.02 | 0.02 | 42 | 1010.4 |
| 20260508022532 | 58 | 279 | 0.0 | 8.0 | 0.00 | 0.02 | 0.02 | 43 | 1010.5 |
| 20260508022033 | 58 | 260 | 1.0 | 11.0 | 0.00 | 0.02 | 0.02 | 40 | 1010.7 |
| 20260508021536 | 58 | 272 | 1.0 | 11.0 | 0.00 | 0.02 | 0.02 | 39 | 1010.7 |
| 20260508021032 | 58 | 289 | 0.0 | 5.0 | 0.00 | 0.02 | 0.02 | 37 | 1010.4 |
| 20260508020532 | 58 | 254 | 0.0 | 0.0 | 0.00 | 0.02 | 0.02 | 43 | 1010.2 |
| 20260508020043 | 58 | 254 | 0.0 | 0.0 | 0.00 | 0.02 | 0.02 | 47 | 1010.0 |
| 20260508015531 | 58 | 254 | 0.0 | 0.0 | 0.00 | 0.02 | 0.02 | 45 | 1010.0 |
| 20260508015031 | 59 | 254 | 0.0 | 0.0 | 0.00 | 0.02 | 0.02 | 47 | 1009.9 |
| 20260508014632 | 59 | 254 | 0.0 | 0.0 | 0.00 | 0.02 | 0.02 | 45 | 1009.8 |
| 20260508014033 | 59 | 254 | 0.0 | 0.0 | 0.00 | 0.02 | 0.02 | 47 | 1009.7 |
| 20260508013532 | 60 | 254 | 0.0 | 0.0 | 0.00 | 0.02 | 0.02 | 45 | 1009.6 |
| 20260508013030 | 60 | 254 | 0.0 | 0.0 | 0.00 | 0.02 | 0.02 | 45 | 1009.6 |
| 20260508012530 | 60 | 254 | 0.0 | 0.0 | 0.00 | 0.02 | 0.02 | 43 | 1009.6 |
| 20260508012031 | 60 | 254 | 0.0 | 0.0 | 0.00 | 0.02 | 0.02 | 41 | 1009.6 |
| 20260508011531 | 60 | 254 | 0.0 | 0.0 | 0.00 | 0.02 | 0.02 | 42 | 1009.6 |
| 20260508011030 | 61 | 254 | 0.0 | 0.0 | 0.00 | 0.02 | 0.02 | 41 | 1009.6 |
| 20260508010530 | 61 | 254 | 0.0 | 0.0 | 0.00 | 0.02 | 0.02 | 35 | 1009.6 |
| 20260508010033 | 61 | 254 | 0.0 | 0.0 | 0.00 | 0.02 | 0.02 | 34 | 1009.6 |
| 20260508005529 | 61 | 254 | 0.0 | 0.0 | 0.00 | 0.02 | 0.02 | 36 | 1009.7 |
| 20260508005028 | 61 | 254 | 0.0 | 0.0 | 0.00 | 0.02 | 0.02 | 36 | 1009.7 |
| 20260508004528 | 61 | 254 | 0.0 | 0.0 | 0.00 | 0.02 | 0.02 | 36 | 1009.9 |
| 20260508004031 | 61 | 254 | 0.0 | 0.0 | 0.00 | 0.02 | 0.02 | 33 | 1010.0 |
| 20260508003530 | 61 | 254 | 0.0 | 0.0 | 0.00 | 0.02 | 0.02 | 33 | 1010.0 |
| 20260508003028 | 61 | 254 | 0.0 | 0.0 | 0.00 | 0.02 | 0.02 | 33 | 1009.9 |
| 20260508002528 | 61 | 254 | 0.0 | 0.0 | 0.00 | 0.02 | 0.02 | 32 | 1009.9 |
| 20260508002027 | 61 | 254 | 0.0 | 0.0 | 0.00 | 0.02 | 0.02 | 32 | 1010.0 |
| 20260508001546 | 61 | 254 | 0.0 | 0.0 | 0.00 | 0.02 | 0.02 | 31 | 1010.0 |